Location: Madrid
(40.4000°N, 3.6830°W)
Time: 16:48:30
(UTC+02:00)

ISS - Pass Details

Date: 09 March 2021
Orbit: 418 x 422 km, 51.6° (Epoch: 16 April)

Event Time Altitude Azimuth Distance (km) Brightness Sun altitude
Exits shadow 04:57:43 12° 41° (NE) 1,388 -0.4 -30.4°
Drops below altitude 10° 04:58:14 10° 49° (NE) 1,498 -0.2 -30.3°
Sets 05:01:03 0° 74° (ENE) 2,361 1.2 -29.8°
